Location: Cutler
(25.6150°N, 80.3110°W)
Time: 19:51:47
(UTC-05:00)

N. Korean satellite - Pass Details

Date: 14 November 2017
Orbit: 460 x 515 km, 97.2° (Epoch: 17 November)

Event Time Altitude Azimuth Distance (km) Brightness Sun altitude
Rises 18:42:07 0° 175° (S) 2,467 10.3 -15.8°
Reaches altitude 10° 18:44:10 10° 180° (S) 1,597 9.3 -16.2°
Maximum altitude 18:47:32 59° 260° (W) 538 7.0 -17.0°
Drops below altitude 10° 18:50:57 10° 340° (NNW) 1,616 9.3 -17.7°
Sets 18:53:02 0° 345° (NNW) 2,500 10.2 -18.2°
